Location: Berg
(47.2344°N, 9.5296°E)
Time: 22:44:15
(UTC+00:00)

AQUARIUS - Pass Details

Date: 24 January 2021
Orbit: 650 x 652 km, 98.0° (Epoch: 03 March)

Event Time Altitude Azimuth Distance (km) Brightness Sun altitude
Rises 16:52:51 0° 169° (S) 2,960 7.7 -7.2°
Reaches altitude 10° 16:55:03 10° 171° (S) 2,054 6.9 -7.5°
Maximum altitude 16:59:32 76° 258° (WSW) 679 4.4 -8.2°
Drops below altitude 10° 17:04:03 10° 343° (NNW) 2,071 6.7 -8.9°
Sets 17:06:17 0° 346° (NNW) 2,987 7.5 -9.3°
